Weather Roundup
Issued by NWS

Home | Current Version | Previous Version | Text Only | Print | Product List | Glossary On
Versions: 1 2 3 4 5 6 7 8 9 10 11 12 13 14 15 16 17 18 19 20 21 22 23 24 25 26 27 28 29 30 31 32 33 34 35 36 37 38 39 40 41 42 43 44 45 46 47 48 49 50
000
NZUS93 KARX 270759
HRRWXR

CURRENT HOURLY OBSERVATIONS ACROSS
MUCH OF THE UPPER MISSISSIPPI VALLEY
NATIONAL WEATHER SERVICE LA CROSSE WI
300 AM CDT MON APR 27 2015


...SOUTHEAST MINNESOTA...


CITY           SKY/WX    TMP DP  RH WIND       PRES   REMARKS
ROCHESTER      CLEAR     42  25  50 N7        30.15R
ROCHESTER/MAYO FAIR      44  28  52 NW3       30.15S
WINONA         CLEAR     41  32  70 CALM      30.15R
AUSTIN         CLEAR     39  28  65 CALM      30.14S
ALBERT LEA     CLEAR     41  28  60 N3        30.15S
DODGE CENTER   CLEAR     43  27  52 N5        30.15S
PRESTON        CLEAR     38  27  63 N6        30.14S WCI  34
OWATONNA       CLEAR     36  23  60 CALM      30.16S
FARIBAULT      CLEAR     36  27  69 CALM      30.17R
$$

...ELSEWHERE IN MINNESOTA...


CITY           SKY/WX    TMP DP  RH WIND       PRES   REMARKS
MINNEAPOLIS    CLEAR     41  32  70 CALM      30.18R
INTNL FALLS    CLEAR     28  22  78 CALM      30.18F
DULUTH         CLEAR     30  22  72 CALM      30.17F
RED WING       CLEAR     37  27  65 W3        30.15S
REDWOOD FALLS  CLEAR     44  22  41 CALM      30.18R
MANKATO        CLEAR     45  25  45 E5        30.17S
WORTHINGTON    CLEAR     34  21  60 NW5       30.17S WCI  30
FAIRMONT       CLEAR     37  27  65 NW6       30.15S WCI  33
$$

...SOUTHWEST WISCONSIN...


CITY           SKY/WX    TMP DP  RH WIND       PRES   REMARKS
LA CROSSE      CLEAR     43  30  60 NW9       30.13R
PRAIRIE DU CHI CLEAR     38  32  79 CALM      30.12R
BOSCOBEL       CLEAR     38  30  73 CALM      30.13R
LONE ROCK      NOT AVBL
PLATTEVILLE    CLEAR     38  29  69 E7        30.11R WCI  33
FORT MC COY    CLEAR     32  27  81 CALM      30.13S
VIROQUA        FAIR      40  28  63 NE5       30.11R
WIS DELLS      CLEAR     36  29  76 CALM      30.11S
$$

...ELSEWHERE IN WISCONSIN...


CITY           SKY/WX    TMP DP  RH WIND       PRES   REMARKS
MILWAUKEE      CLEAR     39  29  67 NW6       30.08S WCI  35
MADISON        CLEAR     34  28  79 CALM      30.11S
GREEN BAY      CLEAR     40  30  67 NW7       30.10S
EAU CLAIRE     NOT AVBL
BLACK RVR FLS  FAIR      34  26  73 CALM      30.13S
MEDFORD        CLEAR     35  28  74 CALM      30.13S
WAUSAU         CLEAR     40  30  67 NW3       30.12R
WIS RAPIDS     CLEAR     36  27  69 CALM      30.13F
MARSHFIELD     CLEAR     40  29  64 NE3       30.12S
RICE LAKE      CLEAR     33  28  82 CALM      30.18S
$$

...NORTHEAST IOWA...


CITY           SKY/WX    TMP DP  RH WIND       PRES   REMARKS
DECORAH        CLEAR     45  27  49 N5        30.11R
MASON CITY     CLEAR     36  28  73 N7        30.15R WCI  30
CHARLES CITY   CLEAR     41  28  60 N9        30.13S
OELWEIN        CLEAR     41  28  60 N8        30.10F
$$

...ELSEWHERE IN IOWA...


CITY           SKY/WX    TMP DP  RH WIND       PRES   REMARKS
DES MOINES     CLEAR     45  32  60 CALM      30.10F
IOWA CITY      CLEAR     41  33  73 CALM      30.08F
FORT DODGE     CLEAR     36  28  75 CALM      30.13F
$$

...NORTHERN ILLINOIS...


CITY           SKY/WX    TMP DP  RH WIND       PRES   REMARKS
CHICAGO-OHARE  CLEAR     40  30  67 N8        30.06R WCI  34
CHICAGO-MIDWAY CLEAR     44  32  62 N13       30.06R
MOLINE         CLEAR     33  31  92 E3        30.07R
ROCKFORD       CLEAR     38  28  67 N7        30.12R WCI  33
PEORIA         CLEAR     40  33  76 CALM      30.06S
$$

NOTE: "FAIR" INDICATES FEW OR NO CLOUDS BELOW 12,000 FEET WITH NO
SIGNIFICANT WEATHER AND/OR OBSTRUCTIONS TO VISIBILITY. WIND
SPEEDS ARE IN MILES-PER-HOUR.



USA.gov is the U.S. government's official web portal to all federal, state and local government web resources and services.